Home > Time Zones > World Clock > Weather > Macau > Macau > Past weeks

Flag for Macau Weather past 2 weeks in Macau, Macau

Now
81 °F

Passing clouds.


Feels Like: 88 °F
Forecast: 82 / 88 °F
Wind: 5 mph from East

Location: Taipa

Current Time: Sep 4, 2015 at 6:05:26 AM

Latest Report: Sep 4, 2015 at 5:00 AM


Visibility: N/A

Pressure: 29.92 "Hg

Humidity: 94%

Dew point: 79 °F

Location of MacauLocation

Historic Weather in Macau — Graph

°F

Macau temperature yesterday

Maximum temperature yesterday: 82 °F (at 8:30 AM)
Minimum temperature yesterday: 79 °F (at 12:00 AM)
Average temperature yesterday: 82 °F

Past Weeks' High & Low Weather Summary

 TemperatureHumidityPressure
High93 °F (Aug 23, 3:00 PM)100% (Aug 29, 12:00 PM)29.95 "Hg (Aug 29, 12:00 PM)
Low75 °F (Aug 29, 11:30 AM)49% (Aug 25, 1:00 PM)29.47 "Hg (Aug 22, 2:30 PM)
Average84 °F80%29.69 "Hg
* Reported Aug 20 4:00 AM — Sep 4 4:30 AM, Macau, Weather by CustomWeather, © 2015

Note: Actual official high and low records may vary slightly from our data, if they occured in-between our weather recording intervals... More about our weather records

Advertising

Macau weather history for previous 24 hours

 ConditionsComfort  
Time TempWeatherWind HumidityBarometerVisibility
4:30 AM
Fri, Sep 4
81 °FPassing clouds.6 mph94%29.92 "HgN/A
4:00 AM81 °FPassing clouds.6 mph94%29.89 "HgN/A
3:30 AM81 °FPassing clouds.8 mph94%29.89 "HgN/A
3:00 AM81 °FPassing clouds.7 mph94%29.89 "HgN/A
2:30 AM81 °FPassing clouds.9 mph94%29.89 "HgN/A
2:00 AM81 °FPassing clouds.9 mph94%29.92 "HgN/A
1:30 AM81 °FPassing clouds.9 mph94%29.92 "HgN/A
1:00 AM81 °FPassing clouds.8 mph94%29.92 "HgN/A
12:30 AM81 °FPassing clouds.10 mph94%29.92 "HgN/A
12:00 AM81 °FPassing clouds.9 mph94%29.92 "HgN/A
11:00 PM
Thu, Sep 3
81 °FPassing clouds.7 mph94%29.92 "HgN/A
10:30 PM82 °FPassing clouds.8 mph89%29.92 "HgN/A
10:00 PM82 °FPassing clouds.8 mph89%29.92 "HgN/A
9:30 PM82 °FPassing clouds.7 mph89%29.92 "HgN/A
9:00 PM82 °FPassing clouds.7 mph89%29.92 "HgN/A
8:30 PM82 °FPassing clouds.7 mph89%29.92 "HgN/A
8:00 PM82 °FPassing clouds.7 mph89%29.89 "HgN/A
7:30 PM82 °FPassing clouds.8 mph89%29.89 "HgN/A
7:00 PM82 °FPassing clouds.8 mph89%29.89 "HgN/A
6:30 PM82 °FScattered clouds.9 mph89%29.86 "HgN/A
6:00 PM82 °FScattered clouds.9 mph89%29.86 "HgN/A
5:30 PM82 °FScattered clouds.9 mph89%29.86 "HgN/A
5:00 PM82 °FScattered clouds.8 mph89%29.86 "HgN/A
4:30 PM82 °FScattered clouds.3 mph89%29.86 "HgN/A
4:00 PM82 °FSprinkles. Scattered clouds.6 mph89%29.89 "Hg6 mi
3:30 PM82 °FSprinkles. Scattered clouds.3 mph89%29.89 "Hg3 mi
2:30 PM82 °FScattered clouds.3 mph89%29.89 "HgN/A
2:00 PM82 °FScattered clouds.3 mph89%29.89 "HgN/A
1:30 PM82 °FPassing clouds.5 mph89%29.89 "HgN/A
1:00 PM82 °FPassing clouds.3 mph89%29.92 "HgN/A
12:30 PM82 °FPassing clouds.3 mph89%29.92 "HgN/A
11:30 AM82 °FPassing clouds.6 mph84%29.92 "HgN/A
11:00 AM82 °FPassing clouds.7 mph89%29.92 "HgN/A
10:30 AM82 °FPassing clouds.7 mph89%29.95 "HgN/A
10:00 AM82 °FPassing clouds.8 mph89%29.92 "HgN/A
9:30 AM82 °FPassing clouds.8 mph89%29.92 "HgN/A
9:00 AM82 °FPassing clouds.8 mph89%29.92 "HgN/A
8:30 AM82 °FPassing clouds.10 mph89%29.89 "HgN/A
8:00 AM81 °FPassing clouds.9 mph89%29.89 "HgN/A
7:30 AM81 °FPassing clouds.9 mph89%29.89 "HgN/A
7:00 AM81 °FPassing clouds.9 mph89%29.86 "HgN/A
6:30 AM81 °FScattered clouds.9 mph89%29.86 "HgN/A
Weather by CustomWeather, © 2015

See weather overviewHow to use our weather pages